Regional Weather Roundup
Issued by NWS

Home | Current Version | Previous Version | Graphics & Text | Print | Product List | Glossary On
Versions: 1 2 3 4 5 6 7 8 9 10 11 12 13 14 15 16 17 18 19 20 21 22 23 24 25 26 27 28 29 30 31 32 33 34 35 36 37 38 39 40 41 42 43 44 45 46 47 48 49 50
699
ASUS43 KMPX 182110
RWRMN
WEATHER ROUNDUP FOR MINNESOTA
NATIONAL WEATHER SERVICE TWIN CITIES/CHANHASSEN MN
300 PM CST SAT NOV 18 2017


NOTE: "FAIR" INDICATES FEW OR NO CLOUDS BELOW 12,000 FEET WITH NO
SIGNIFICANT WEATHER AND/OR OBSTRUCTIONS TO VISIBILITY. N/A MEANS
CURRENT SKY AND/OR WEATHER CONDITIONS ARE NOT AVAILABLE.

MNZ060>063-068>070-182200-
   Twin Cities Metro

CITY           SKY/WX    TMP DP  RH WIND       PRES   REMARKS
TWIN CITIES    MOSUNNY   33  20  58 NW24G30   29.87R WCI  20
ST PAUL        MOSUNNY   33  20  58 NW15G26   29.88R WCI  23
CRYSTAL        MOSUNNY   34  17  50 NW18G24   29.87R WCI  23
BLAINE         MOSUNNY   34  21  60 NW18G26   29.87R WCI  23
LAKEVILLE      SUNNY     34  21  60 W17G25    29.86R WCI  23
EDEN PRAIRIE   SUNNY     34  19  54 NW21G26   29.86R WCI  22
SOUTH ST PAUL  MOSUNNY   34  20  56 NW15      29.85R WCI  24
LAKE ELMO      FAIR      34  21  60 NW17      29.85R WCI  23
$$
MNZ001>005-007-008-013>017-022>024-027-028-182200-
   Northwest Minnesota

CITY           SKY/WX    TMP DP  RH WIND       PRES   REMARKS
BEMIDJI        FLURRIES  17  10  72 NW22      29.93R WCI   0
HALLOCK        SUNNY     18   9  68 W17       30.00S WCI   2
ROSEAU         FLURRIES  18  10  73 W12G17    29.95S WCI   5
WARROAD        CLOUDY    16   9  73 W13G20    29.94R WCI   2
THIEF RVR FALL FLURRIES  16  10  77 W17       29.99S WCI   0
CROOKSTON      MOSUNNY   19  10  68 NW18      30.03S WCI   4
FOSSTON        FLURRIES  16   9  73 W13G24    29.98S WCI   2
DETROIT LAKES  PTSUNNY   21  12  68 NW16      29.99S WCI   7
MOORHEAD       SUNNY     25   9  50 NW21      30.04R WCI  10
PARK RAPIDS    FLURRIES  19  11  70 NW18G26   29.93R WCI   4
MAHNOMEN       CLOUDY    18   9  69 NW18      29.99S WCI   2
$$
MNZ006-009>011-018-025>026-182200-
   North Central Minnesota

CITY           SKY/WX    TMP DP  RH WIND       PRES   REMARKS
BAUDETTE       CLOUDY    16   8  71 NW13G24   29.91R WCI   2
FLAG ISLAND    CLOUDY    16   9  73 W15G21    29.91S WCI   1
INTL FALLS     LGT SNOW  18   9  68 NW15G25   29.88R WCI   4
WASKISH        FLURRIES  18  12  79 W16G22    29.92R WCI   3
BIG FORK       FLURRIES  19  12  73 W5G18     29.88R WCI  13
LONGVILLE      CLOUDY    19  12  73 NW9G20    29.91R WCI   9
GRAND RAPIDS   FLURRIES  21  14  74 NW17G23   29.89R WCI   7
CRANE LAKE     FLURRIES  21  16  79 W7        29.85R WCI  13
ORR            FLURRIES  19  12  73 W10       29.82R WCI   8
COOK           FLURRIES  21  14  73 W8        29.84R WCI  12
WALKER         FLURRIES  19  11  70 W14G22    29.91S WCI   5
$$
MNZ012-019>021-037-182200-
   Northeast Minnesota

CITY           SKY/WX    TMP DP  RH WIND       PRES   REMARKS
DULUTH         PTSUNNY   24  15  68 NW22G28   29.80R WCI   9
ELY            FLURRIES  21  16  79 NW6       29.79S WCI  14
HIBBING        FLURRIES  21  14  74 NW15      29.84R WCI   8
EVELETH        FLURRIES  19  10  68 NW9G17    29.83R WCI   9
DULUTH HARBOR  PTSUNNY   28  18  64 NW15G25   29.86R WCI  17
TWO HARBORS    PTSUNNY   28  18  64 W10G22    29.78R WCI  19
SILVER BAY     CLOUDY    25  18  74 NW8G20    29.77R WCI  16
GRAND MARAIS     N/A     28  19  69 MISG      29.77R
G MARAIS ARPRT CLOUDY    19  12  73 NW12G21   29.69R WCI   7
$$
MNZ029>031-032-039>041-046>048-054>057-064-182200-
   West Central Minnesota

CITY           SKY/WX    TMP DP  RH WIND       PRES   REMARKS
FERGUS FALLS   MOSUNNY   23  12  63 NW21      30.03S WCI   8
WHEATON        SUNNY     27  10  50 NW16G26   30.05S WCI  14
MORRIS         SUNNY     27  14  59 NW21G32   29.99S WCI  13
ALEXANDRIA     MOSUNNY   22  13  68 NW22G29   29.96R WCI   6
ELBOW LAKE     FAIR      23  13  64 W18G28    30.00S HAZE    WCI   9
WADENA         FLURRIES  18  12  79 NW15      29.96S WCI   3
GLENWOOD       SUNNY     25  16  68 NW26G35   29.95S WCI   9
APPLETON       SUNNY     30  12  47 NW21G28   30.00S WCI  17
BENSON         SUNNY     28  14  54 N22G29    30.00R WCI  15
ORTONVILLE     SUNNY     28  12  50 MISG      30.01S
MADISON        SUNNY     34  18  51 NW15G28   30.01S WCI  24
WILLMAR        FAIR      28  18  64 NW25G31   29.97R WCI  14
$$
MNZ033>034-036-042>043-049>051-058-059-182200-
   Central Minnesota

CITY           SKY/WX    TMP DP  RH WIND       PRES   REMARKS
ST CLOUD       SUNNY     29  17  61 NW16G26   29.90S WCI  17
SAUK CENTRE    MOCLDY    26  15  63 W14       29.94R WCI  15
PAYNESVILLE    SUNNY     29  19  67 NW21      29.94R WCI  15
AITKIN         CLOUDY    21  14  73 W9        29.88S WCI  11
PINE RIVER     CLOUDY    21  12  68 NW13      29.95R WCI   9
BRAINERD       CLOUDY    25  13  60 NW15      29.91S WCI  13
STAPLES        PTSUNNY   19  12  73 NW16      29.94R WCI   5
LONG PRAIRIE   FAIR      27  16  63 W17       29.93S WCI  14
LITTLE FALLS   SUNNY     28  10  47 NW10G17   29.92S WCI  19
LITCHFIELD     MOSUNNY   30  19  64 NW21G29   29.93R WCI  17
BUFFALO        SUNNY     31  17  57 NW18G25   29.91R WCI  19
MAPLE LAKE     SUNNY     32  20  62 NW16G23   29.91R WCI  21
HUTCHINSON     SUNNY     32  21  63 NW17G25   29.93R WCI  21
$$
MNZ037-044-045-052-053-182200-
   East Central Minnesota

CITY           SKY/WX    TMP DP  RH WIND       PRES   REMARKS
PRINCETON      SUNNY     34  19  55 NW13G18   29.89R WCI  25
MORA           MOSUNNY   30  19  64 NW21G28   29.88R WCI  17
CAMBRIDGE      SUNNY     34  19  55 NW13G20   29.87R WCI  25
RUSH CITY      SUNNY     31  19  61 NW10G20   29.86S WCI  22
MOOSE LAKE     PTSUNNY   28  18  64 NW12G21   29.84R WCI  18
HINCKLEY       MOCLDY    32  19  59 NW13G20   29.86R WCI  22
CLOQUET        PTSUNNY   25  14  63 NW16G26   29.82R WCI  12
MCGREGOR       CLOUDY    25  18  74 NW13      29.87S WCI  13
$$
MNZ071>073-080-081-089-090-097-098-182200-
   Southwest Minnesota

CITY           SKY/WX    TMP DP  RH WIND       PRES   REMARKS
MONTEVIDEO     SUNNY     30  16  55 N17G26    30.00R WCI  18
GRANITE FALLS  SUNNY     32  19  57 NW21G29   30.00S WCI  20
CANBY          SUNNY     34  15  47 W22G33    30.01R WCI  22
MARSHALL       SUNNY     33  16  49 NW21G29   29.98R WCI  21
REDWOOD FALLS  SUNNY     32  16  51 NW18G28   29.96R WCI  20
OLIVIA         SUNNY     30  19  64 NW25G32   29.95S WCI  16
PIPESTONE      SUNNY     32  16  51 N17G29    29.98S WCI  21
WINDOM           N/A     34  16  47 NW20G29   29.95R WCI  22
WORTHINGTON    SUNNY     34  18  52 NW23G32   29.97R WCI  22
JACKSON        SUNNY     32  19  59 NW22G32   29.95R WCI  19
SLAYTON        SUNNY     33  18  53 NW17G31   29.97R WCI  22
$$
MNZ065>067-074>077-082>085-091>093-182200-
   South Central Minnesota

CITY           SKY/WX    TMP DP  RH WIND       PRES   REMARKS
MANKATO        MOSUNNY   32  20  61 NW20G31   29.91R WCI  20
NEW ULM        SUNNY     30  18  59 NW23G32   29.94R WCI  17
ST JAMES       SUNNY     32  19  59 W24G31    29.95R WCI  19
FAIRMONT       MOSUNNY   32  21  64 NW25G32   29.93R WCI  19
GLENCOE        SUNNY     33  22  64 NW17G25   29.91R WCI  21
FARIBAULT      PTSUNNY   34  21  60 W18G28    29.87R WCI  23
OWATONNA       PTSUNNY   34  25  69 W22       29.86R WCI  22
WASECA         MOSUNNY   32  23  69 NW22G30   29.89R WCI  19
ALBERT LEA     PTSUNNY   34  21  60 NW16G22   29.86R WCI  23
$$
MNZ078>079-086>088-094>096-182200-
   Southeast Minnesota

CITY           SKY/WX    TMP DP  RH WIND       PRES   REMARKS
ROCHESTER      PTSUNNY   37  26  64 NW24      29.80R
RED WING       MOSUNNY   37  19  48 NW12G21   29.82R
STANTON        PTSUNNY   37  23  57 NW17G25   29.84R
DODGE CENTER   MOSUNNY   34  23  64 NW16G25   29.82R WCI  23
WINONA         SUNNY     39  28  65 NW17G23   29.78R
AUSTIN         MOSUNNY   36  23  60 NW20G29   29.83R
PRESTON        SUNNY     37  26  63 NW20G31   29.78R
$$
ABBREVIATIONS USED IN REMARKS
   TC - TEMPERATURES IN CELSIUS
  WCI - WIND CHILL INDEX
   HX - HEAT INDEX
  VSB - VISIBILITY
$$




USA.gov is the U.S. government's official web portal to all federal, state and local government web resources and services.